Regional Weather Roundup
Issued by NWS Sterling, VA

Home | Current Version | Previous Version | Graphics & Text | Print | Product List | Glossary On
Versions: 1 2 3 4 5 6 7 8 9 10 11 12 13 14 15 16 17 18 19 20 21 22 23 24 25 26 27
000
ASUS41 KLWX 291711
RWRLWX

REGIONAL WEATHER ROUNDUP
NATIONAL WEATHER SERVICE BALTIMORE MD/WASHINGTON DC
100 PM EDT WED MAR 29 2017

Note: "FAIR" indicates few or no clouds below 12,000 feet
with no significant weather and/or obstructions to visibility.
 TC=TEMPERATURE CELSIUS

 * =Non NWS site. Station does not report precipitation (e.g. rain,
    snow, etc.), thunder, or fog.

DCZ001-MDZ009-015-VAZ040>042-051-053>054-291800-
WASHINGTON METRO

CITY           SKY/WX    TMP DP  RH WIND       PRES   REMARKS
WASHINGTON NAT MOSUNNY   62  39  42 NW10      30.13F
DULLES         MOSUNNY   59  39  47 N10       30.14S
ANDREWS AFB    SUNNY     61  37  41 N14       30.11F
FT BELVOIR     SUNNY     62  40  45 NW14      30.12F
QUANTICO       MOSUNNY   64  44  48 N15G21    30.13S
COLLEGE PARK*  SUNNY     59  37  44 NW8G16    30.12F
LEESBURG*      SUNNY     61  43  51 N8        30.15S
MANASSAS*      MOSUNNY  N/A N/A N/A N10G18    30.14F

$$

MDZ006>007-011-014-291800-
BALTIMORE METRO

CITY           SKY/WX    TMP DP  RH WIND       PRES   REMARKS
BWI AIRPORT    MOSUNNY   60  36  40 NW9       30.12S
MD SCIENCE CTR   N/A     60  33  36 MISG      30.13S
MARTIN STATE   SUNNY     61  39  44 NW7G18    30.14S
ANNAPOLIS      SUNNY     58  37  45 NW10      30.11F

$$

MDZ012-015-019>023-291800-
MARYLAND EASTERN SHORE

CITY           SKY/WX    TMP DP  RH WIND       PRES   REMARKS
OCEAN CITY     MOSUNNY   56  42  59 N12G20    30.09F
SALISBURY      MOSUNNY   59  43  55 NW13G18   30.08F
BAY BRIDGE AP* SUNNY     57  39  51 N12       30.12F
CAMBRIDGE*     SUNNY     57  39  51 NW15      30.10S
EASTON*        SUNNY     59  37  44 NW13G18   30.15S

$$

MDZ017>025-291800-
SOUTHERN MARYLAND

CITY           SKY/WX    TMP DP  RH WIND       PRES   REMARKS
PATUXENT RIVER MOSUNNY   56  42  59 N13       30.11S
ST INIGOES     SUNNY     58  40  51 NE12G20   30.10F
LEONARDTOWN*   SUNNY     55  39  54 NE6       30.12S

$$

MDZ003>005-291800-
NORTH CENTRAL MARYLAND

CITY           SKY/WX    TMP DP  RH WIND       PRES   REMARKS
FREDERICK*     NOT AVBL
HAGERSTOWN APT SUNNY     57  37  47 NW10      30.15F
WESTMINSTER*   SUNNY     55  36  47 N9        30.15S

$$

MDZ501>502-291800-
WESTERN MARYLAND

CITY           SKY/WX    TMP DP  RH WIND       PRES   REMARKS
OAKLAND*       SUNNY     45  36  70 CALM      30.16F
CUMBERLAND*    SUNNY     61  36  39 CALM      30.19F

$$

VAZ025>031-291800-
SHENANDOAH VALLEY

CITY           SKY/WX    TMP DP  RH WIND       PRES   REMARKS
WINCHESTER*    SUNNY     57  37  47 N9        30.15S
FRONT ROYAL*   MOSUNNY   59  41  51 N3        30.14
LURAY*         NOT AVBL
NEW MARKET*    SUNNY     59  41  51 N6        30.14F
STAUNTON*      SUNNY     60  45  56 N9        30.14F
WAYNESBORO*    NOT AVBL

$$

WVZ021-048>050-054>055-291800-
EASTERN WEST VIRGINIA PANHANDLE

CITY           SKY/WX    TMP DP  RH WIND       PRES   REMARKS
MARTINSBURG    SUNNY     60  39  45 N12G17    30.14F
PETERSBURG*    MOSUNNY   60  43  54 NW3       30.15F

$$

VAZ036>039-050-291800-
CENTRAL FOOTHILLS

CITY           SKY/WX    TMP DP  RH WIND       PRES   REMARKS
CHARLOTTESVILL SUNNY     66  44  45 CALM      30.10F
CULPEPER*      MOSUNNY   63  45  51 N9G18     30.14S
ORANGE*        MOSUNNY   61  45  55 N7        30.13F
GORDONSVILLE*  NOT AVBL
WARRENTON*     PTSUNNY   65  40  40 NW12      30.13S

$$

VAZ055>057-291800-
NORTH AND CENTRAL PIEDMONT

CITY           SKY/WX    TMP DP  RH WIND       PRES   REMARKS
FREDERICKSBRG* MOSUNNY   63  45  52 N8        30.11F
STAFFORD*      MOSUNNY   62  46  56 NW9G17    30.16S

$$

NCZ024-NYZ072-PAZ021-071-VAZ022-071-291800-
OTHER REGIONAL OBSERVATIONS

CITY           SKY/WX    TMP DP  RH WIND       PRES   REMARKS
NEW YORK CITY  SUNNY     57  35  43 VRB7      30.09F
PHILADELPHIA   MOSUNNY   58  34  40 N13       30.10F
PITTSBURGH     MOSUNNY   52  37  56 N5        30.20F
ROANOKE        MOSUNNY   67  45  45 VRB5      30.11F
RICHMOND       PTSUNNY   63  50  62 N8        30.09F
RALEIGH        PTSUNNY   68  51  54 E7        30.09F

$$

ANZ530>537-291800-
MARINE OBSERVATIONS

STATION/POSITION TIME  TEMP    WIND        PRES
                       AIR SEA DIR/SP/G
                 (UTC) (F)     (DEG/KT/KT) (MB)
THOMAS PT LIGHT  1700   50 47   60/  9/ 10   N/A
BALT KEY BRIDGE  1648   54     290/  6/  8 1020.2S
COVE POINT       1648   50      40/ 15/ 17 1020.3R
LEWISETTA        1648   54 52   50/  5/  7 1019.5S
SOLOMONS ISLAND  1648   54 48   10/  9/ 15   N/A
PINEY POINT      1642           30/  6/  7   N/A

$$





USA.gov is the U.S. government's official web portal to all federal, state and local government web resources and services.